When you browse on this site, cookies collect data to enhance your experience and personalize the content and advertising you see.
Visit our Privacy Policy to learn more. By continuing to use the site, you agree to this use of cookies and data.
  • In Lithuania
  • List of Countries
  • For 7 days
  • Water Temperature
  • Weather Map
  • Weather Widgets
  • user-avatar
    Login

    Hourly Weather Katmandu

    Today, 20 January, Monday

    Time Temperature Precipitation Wind Pressure Humidity
    00:00 +7°C° 0 mm 1 mps 652 mmHg 76%
    01:00 +6°C° 0 mm 1 mps 652 mmHg 75%
    02:00 +6°C° 0 mm 1 mps 651 mmHg 74%
    03:00 +6°C° 0 mm 1 mps 651 mmHg 74%
    04:00 +6°C° 0 mm 1 mps 651 mmHg 72%
    05:00 +5°C° 0 mm 1 mps 651 mmHg 71%
    06:00 +5°C° 0 mm 1 mps 651 mmHg 70%
    07:00 +7°C° 0 mm 1 mps 652 mmHg 65%
    08:00 +8°C° 0 mm 0 mps 652 mmHg 61%
    09:00 +9°C° 0 mm 0 mps 653 mmHg 56%
    10:00 +11°C° 0 mm 0 mps 653 mmHg 51%
    11:00 +14°C° 0 mm 1 mps 653 mmHg 46%
    12:00 +15°C° 0 mm 1 mps 654 mmHg 41%
    13:00 +15°C° 0 mm 1 mps 653 mmHg 41%
    14:00 +15°C° 0 mm 1 mps 652 mmHg 42%
    15:00 +15°C° 0 mm 2 mps 652 mmHg 43%
    16:00 +13°C° 0 mm 1 mps 651 mmHg 53%
    17:00 +11°C° 0 mm 1 mps 651 mmHg 62%
    18:00 +9°C° 0 mm 1 mps 651 mmHg 73%
    19:00 +9°C° 0 mm 1 mps 652 mmHg 75%
    20:00 +8°C° 0 mm 1 mps 652 mmHg 77%
    21:00 +8°C° 0 mm 1 mps 652 mmHg 79%
    22:00 +8°C° 0 mm 1 mps 652 mmHg 77%
    23:00 +7°C° 0 mm 1 mps 652 mmHg 76%

    Tomorrow, 21 January, Tuesday

    Time Temperature Precipitation Wind Pressure Humidity
    00:00 +7°C° 0 mm 1 mps 652 mmHg 74%
    01:00 +7°C° 0 mm 1 mps 652 mmHg 72%
    02:00 +7°C° 0 mm 1 mps 652 mmHg 70%
    03:00 +7°C° 0 mm 1 mps 652 mmHg 68%
    04:00 +7°C° 0 mm 1 mps 652 mmHg 66%
    05:00 +7°C° 0 mm 1 mps 652 mmHg 63%
    06:00 +7°C° 0 mm 1 mps 652 mmHg 61%
    07:00 +8°C° 0 mm 1 mps 653 mmHg 57%
    08:00 +9°C° 0 mm 0 mps 654 mmHg 52%
    09:00 +11°C° 0 mm 0 mps 655 mmHg 48%
    10:00 +13°C° 0 mm 1 mps 655 mmHg 45%
    11:00 +15°C° 0 mm 1 mps 655 mmHg 42%
    12:00 +16°C° 0 mm 1 mps 655 mmHg 40%
    13:00 +16°C° 0 mm 1 mps 654 mmHg 41%
    14:00 +16°C° 0 mm 1 mps 653 mmHg 42%
    15:00 +16°C° 0 mm 1 mps 653 mmHg 44%
    16:00 +14°C° 0 mm 1 mps 653 mmHg 50%
    17:00 +13°C° 0 mm 1 mps 652 mmHg 56%
    18:00 +10°C° 0 mm 0 mps 652 mmHg 62%
    19:00 +9°C° 0 mm 0 mps 653 mmHg 61%
    20:00 +10°C° 0 mm 1 mps 653 mmHg 59%
    21:00 +9°C° 0 mm 1 mps 654 mmHg 58%
    22:00 +9°C° 0 mm 1 mps 654 mmHg 56%
    23:00 +8°C° 0 mm 1 mps 654 mmHg 54%

    Day after tomorrow, 22 January, Wednesday

    Time Temperature Precipitation Wind Pressure Humidity
    00:00 +8°C° 0 mm 1 mps 654 mmHg 52%
    01:00 +8°C° 0 mm 1 mps 654 mmHg 51%
    02:00 +8°C° 0 mm 1 mps 654 mmHg 50%
    03:00 +8°C° 0 mm 1 mps 654 mmHg 49%
    04:00 +8°C° 0 mm 1 mps 654 mmHg 48%
    05:00 +8°C° 0 mm 1 mps 654 mmHg 47%
    06:00 +8°C° 0 mm 1 mps 653 mmHg 46%
    07:00 +9°C° 0 mm 1 mps 654 mmHg 44%
    08:00 +10°C° 0 mm 0 mps 655 mmHg 42%
    09:00 +12°C° 0 mm 0 mps 656 mmHg 40%
    10:00 +15°C° 0 mm 1 mps 656 mmHg 37%
    11:00 +16°C° 0 mm 1 mps 655 mmHg 34%
    12:00 +18°C° 0 mm 2 mps 655 mmHg 31%
    13:00 +18°C° 0 mm 2 mps 654 mmHg 32%
    14:00 +18°C° 0 mm 2 mps 654 mmHg 32%
    15:00 +18°C° 0 mm 2 mps 653 mmHg 33%
    16:00 +15°C° 0 mm 2 mps 652 mmHg 43%
    17:00 +13°C° 0 mm 1 mps 652 mmHg 53%
    18:00 +10°C° 0 mm 1 mps 651 mmHg 63%
    19:00 +10°C° 0 mm 1 mps 651 mmHg 64%
    20:00 +9°C° 0 mm 1 mps 652 mmHg 64%
    21:00 +9°C° 0 mm 1 mps 652 mmHg 65%
    22:00 +8°C° 0 mm 1 mps 652 mmHg 62%
    23:00 +8°C° 0 mm 1 mps 652 mmHg 60%

    23 January, Thursday

    Time Temperature Precipitation Wind Pressure Humidity
    00:00 +8°C° 0 mm 1 mps 652 mmHg 58%
    01:00 +8°C° 0 mm 1 mps 651 mmHg 57%
    02:00 +8°C° 0 mm 1 mps 651 mmHg 55%
    03:00 +7°C° 0 mm 1 mps 651 mmHg 53%
    04:00 +7°C° 0 mm 1 mps 651 mmHg 52%
    05:00 +7°C° 0 mm 1 mps 650 mmHg 51%
    06:00 +7°C° 0 mm 1 mps 650 mmHg 49%
    07:00 +9°C° 0 mm 1 mps 651 mmHg 47%
    08:00 +10°C° 0 mm 1 mps 652 mmHg 45%
    09:00 +11°C° 0 mm 0 mps 653 mmHg 42%
    10:00 +14°C° 0 mm 1 mps 653 mmHg 41%
    11:00 +15°C° 0 mm 1 mps 653 mmHg 39%
    12:00 +18°C° 0 mm 1 mps 652 mmHg 37%
    13:00 +17°C° 0 mm 2 mps 652 mmHg 39%
    14:00 +17°C° 0 mm 2 mps 651 mmHg 40%
    15:00 +16°C° 0 mm 2 mps 650 mmHg 42%
    16:00 +14°C° 0 mm 2 mps 650 mmHg 55%
    17:00 +12°C° 0 mm 1 mps 649 mmHg 68%
    18:00 +10°C° 0 mm 1 mps 649 mmHg 81%
    19:00 +9°C° 0 mm 1 mps 649 mmHg 82%
    20:00 +8°C° 0 mm 1 mps 649 mmHg 83%
    21:00 +8°C° 0 mm 1 mps 649 mmHg 84%
    22:00 +8°C° 0 mm 1 mps 649 mmHg 83%
    23:00 +7°C° 0 mm 1 mps 649 mmHg 82%

    24 January, Friday

    Time Temperature Precipitation Wind Pressure Humidity
    00:00 +7°C° 0 mm 1 mps 649 mmHg 81%
    01:00 +7°C° 0 mm 1 mps 649 mmHg 80%
    02:00 +7°C° 0 mm 1 mps 649 mmHg 79%
    03:00 +7°C° 0 mm 1 mps 648 mmHg 78%
    04:00 +7°C° 0 mm 1 mps 649 mmHg 78%
    05:00 +6°C° 0 mm 1 mps 649 mmHg 78%
    06:00 +6°C° 0 mm 1 mps 649 mmHg 77%
    07:00 +8°C° 0 mm 1 mps 650 mmHg 73%
    08:00 +9°C° 0 mm 1 mps 651 mmHg 70%
    09:00 +11°C° 0 mm 1 mps 652 mmHg 66%
    10:00 +12°C° 0 mm 1 mps 653 mmHg 62%
    11:00 +13°C° 0 mm 1 mps 653 mmHg 59%
    12:00 +15°C° 0 mm 1 mps 653 mmHg 55%
    13:00 +15°C° 0 mm 2 mps 652 mmHg 57%
    14:00 +15°C° 0 mm 2 mps 652 mmHg 58%
    15:00 +14°C° 0 mm 2 mps 651 mmHg 60%
    16:00 +13°C° 0 mm 2 mps 651 mmHg 68%
    17:00 +11°C° 0 mm 1 mps 651 mmHg 77%
    18:00 +10°C° 0 mm 1 mps 651 mmHg 85%
    19:00 +9°C° 0 mm 1 mps 651 mmHg 86%
    20:00 +8°C° 0 mm 0 mps 652 mmHg 86%
    21:00 +8°C° 0 mm 0 mps 652 mmHg 87%
    22:00 +7°C° 0 mm 0 mps 652 mmHg 87%
    23:00 +7°C° 0 mm 0 mps 652 mmHg 86%

    25 January, Saturday

    Time Temperature Precipitation Wind Pressure Humidity
    00:00 +6°C° 0 mm 0 mps 652 mmHg 86%
    01:00 +6°C° 0 mm 0 mps 651 mmHg 85%
    02:00 +6°C° 0 mm 0 mps 651 mmHg 84%
    03:00 +6°C° 0 mm 0 mps 651 mmHg 83%
    04:00 +6°C° 0 mm 1 mps 651 mmHg 82%
    05:00 +6°C° 0 mm 1 mps 650 mmHg 80%
    06:00 +6°C° 0 mm 1 mps 650 mmHg 79%
    07:00 +8°C° 0 mm 1 mps 651 mmHg 74%
    08:00 +10°C° 0 mm 1 mps 652 mmHg 68%
    09:00 +10°C° 0 mm 0 mps 653 mmHg 63%
    10:00 +13°C° 0 mm 1 mps 653 mmHg 58%
    11:00 +15°C° 0 mm 1 mps 653 mmHg 54%
    12:00 +16°C° 0 mm 1 mps 653 mmHg 49%
    13:00 +16°C° 0 mm 2 mps 652 mmHg 51%
    14:00 +16°C° 0 mm 2 mps 651 mmHg 53%
    15:00 +16°C° 0 mm 2 mps 650 mmHg 55%
    16:00 +14°C° 0 mm 2 mps 650 mmHg 64%
    17:00 +12°C° 0 mm 1 mps 650 mmHg 73%
    18:00 +11°C° 0 mm 1 mps 649 mmHg 82%
    19:00 +10°C° 0 mm 1 mps 650 mmHg 84%
    20:00 +9°C° 0 mm 1 mps 650 mmHg 86%
    21:00 +7°C° 0 mm 0 mps 650 mmHg 88%
    22:00 +7°C° 0 mm 0 mps 650 mmHg 88%
    23:00 +7°C° 0 mm 0 mps 650 mmHg 87%
    Show more